DELTA 1 DEB, 10843

Orbit data source: Space-Track

DELTA 1 DEB, 10843 is space debris in SSO originally from a launch on Thu, 29 Jul 1976 UTC launched from the Air Force Western Test Range (AFWTR). Debris objects in space refer to the collection of defunct objects orbiting the Earth. Examples of debris include non-operational satellites, rocket bodies, and fragments generated from explosions, collisions, or faulty payload assembly.

Loading next visibility...
Identifier
10843, 1976-077CP
Orbit
SSO
Country
Flag of USUS
Related business
Manufacturer
Unknown
Mission
Spacecraft
Bus & Motor
Unknown
Mass
Unknown
Launch date (UTC)
1976-07-29 (49 years ago)
Launch vehicle
Unknown
Launch site
Air Force Western Test Range (AFWTR)
Object type
Payload
Rocket body
Debris
Shape & HBR
Unknown shape, 0.1 m
Radar Cross Section
Small (<0.1 m²)

Expand to show TLE details & history
Last TLE update: 3 days ago

TLE from 3 days ago
0 DELTA 1 DEB
1 10843U 76077CP  25308.68659120  .00000005  00000-0  28712-3 0  9996
2 10843 101.6835 275.6171 0117684   6.9100 178.8389 12.58551019260991
Epoch: 2025-11-04T16:28Z
TLE epoch observation values (Epoch: 2025-11-04T16:28:41.479Z)
Latitude
-5.79166°
Longitude
163.07823°
Altitude
1,524.33 km
Speed
7.061 km/s
True Right ascension
06h 17m 41s
True Declination
-5° 45' 38"
Sunlit
Object was in daylight at epoch
Visualization orbit readout
Latitude
Unknown
Longitude
Unknown
Altitude
Unknown
Speed
Unknown
Apparent Right ascension
Unknown
Apparent Declination
Unknown
Sunlit
N/A
Visualization observer readout
Local Sidereal Time
13:40:20
Azimuth
Unknown
Elevation
Unknown
Doppler factor
Unknown
Orbital elements
Apogee altitude
1,518.31 km
Perigee altitude
1,334.615 km
Semi-major axis
7,804.599 km
Eccentricity
0.01177
Inclination
101.6835°
RAAN
275.6171°
Arg. of periapsis
6.91°
True anomaly
178.86583°
Mean anomaly
178.8389°
Eccentric anomaly
178.8524°
Mean motion
3.14787 °/min
Orbital period
114.36 mins
BSTAR
0.00028712
Loading maneuver chart data...
Computing Atmospheric mass density...
Loading historical data...
Loading historical data...
Loading historical data...
Loading historical data...
Loading historical data...
Loading historical data...
Loading historical data...

Documentation

Showing up to 5 results
|